Probability
0 0 0 0 3 6 6 6 3 3 3 0 6 6 3 3 3 3 0 0 0 0 0 0 0 0 0 0 0 0 0 0 0 0 0 0 0 0 0 0 0 0 0
0 0 0 0 0 3 3 3 3 3 3 0 0 3 3 3 3 3 0 0 0 0 0 0 0 0 0 0 0 0 0 0 0 0 0 0 0 0 0 0 0 0 0
0 0 0 0 0 3 3 3 3 6 3 3 3 3 3 3 3 3 0 0 0 0 0 0 0 0 0 0 0 0 0 0 0 0 0 0 0 0 0 0 0 0 0
0 0 0 0 0 3 3 3 3 3 3 3 3 3 3 3 3 0 0 0 0 0 0 0 0 0 0 0 0 0 0 0 0 0 0 0 0 0 0 0 0 0 0
0 0 0 0 0 3 3 3 3 0 0 0 0 0 0 0 0 0 0 0 0 0 0 0 0 0 0 0 0 0 0 0 0 0 0 0 0 0 0 0 0 0 0
0 0 0 0 0 0 0 0 0 0 0 0 0 0 0 0 0 0 0 0 0 0 0 0 0 0 0 0 0 0 0 0 0 0 0 0 0 0 0 0 0 0 0
0 0 0 0 0 0 0 0 0 0 0 0 0 0 0 0 0 0 0 0 0 0 0 0 0 0 0 0 0 0 0 0 0 0 0 0 0 0 0 0 0 0 0
0 0 0 0 0 0 0 0 0 0 0 0 0 0 0 0 0 0 0 0 0 0 0 0 0 0 0 0 0 0 0 0 0 0 0 0 0 0 0 0 0 0 0
0 0 0 0 0 0 0 0 0 0 0 0 0 0 0 0 0 0 0 0 0 0 0 0 0 0 0 0 0 0 0 0 0 0 0 0 0 0 0 0 0 0 0
0 0 0 0 0 0 0 0 0 0 0 0 0 0 0 0 0 0 0 0 0 0 0 0 0 0 0 0 0 0 0 0 0 0 0 0 0 0 0 0 0 0 0
0 0 0 0 0 0 0 0 0 0 0 0 0 0 0 0 0 0 0 0 0 0 0 0 0 0 0 0 0 0 0 0 0 0 0 0 0 0 0 0 0 0 0
0 0 0 0 0 0 0 0 0 0 0 0 0 0 0 0 0 0 0 0 0 0 0 0 0 0 0 0 0 0 0 0 0 0 0 0 0 0 0 0 0 0 0
0 0 0 0 0 0 0 0 0 0 0 0 0 0 0 0 0 0 0 0 0 0 0 0 0 0 0 0 0 0 0 0 0 0 0 0 0 0 0 0 0 0 0
0 0 0 0 0 0 0 0 0 0 0 0 0 0 0 0 0 0 0 0 0 0 0 0 0 0 0 0 0 0 0 0 0 0 0 0 0 0 0 0 0 0 0
0 0 0 0 0 0 0 0 0 0 0 0 0 0 0 0 0 0 0 0 0 0 0 0 0 0 0 0 0 0 0 0 0 0 0 0 0 0 0 0 0 0 0
0 0 0 0 0 0 0 0 0 0 0 0 0 0 0 0 0 0 0 0 0 0 0 0 0 0 0 0 0 0 0 0 0 0 0 0 0 0 0 0 0 0 0
0 0 0 0 0 0 0 0 0 0 0 0 0 0 0 0 0 0 0 0 0 0 0 0 0 0 0 0 0 0 0 0 0 0 0 0 0 0 0 0 0 0 0
0 0 0 0 0 0 0 0 0 0 0 0 0 0 0 0 0 0 0 0 0 0 0 0 0 0 0 0 0 0 0 0 0 0 0 0 0 0 0 0 0 0 0
0 0 0 0 0 0 0 0 0 0 0 0 0 0 0 0 0 0 0 0 0 0 0 0 0 0 0 0 0 0 0 0 0 0 0 0 0 0 0 0 0 0 0
0 0 0 0 0 0 0 0 0 0 0 0 0 0 0 0 0 0 0 0 0 0 0 0 0 0 0 0 0 0 0 0 0 0 0 0 0 0 0 0 0 0 0
0 0 0 0 0 0 0 0 0 0 0 0 0 0 0 0 0 0 0 0 0 0 0 0 0 0 0 0 0 0 0 0 0 0 0 0 0 0 0 0 0 0 0
0 0 0 0 0 0 0 0 0 0 0 0 0 0 0 0 0 0 0 0 0 0 0 0 0 0 0 0 0 0 0 0 0 0 0 0 0 0 0 0 0 0 0
0 0 0 0 0 0 0 0 0 0 0 0 0 0 0 0 0 0 0 0 0 0 0 0 0 0 0 0 0 0 0 0 0 0 0 0 0 0 0 0 0 0 0
0 0 0 0 0 0 0 0 0 0 0 0 0 0 0 0 0 0 0 0 0 0 0 0 0 0 0 0 0 0 0 0 0 0 0 0 0 0 0 0 0 0 0
0 0 0 0 0 0 0 0 0 0 0 0 0 0 0 0 0 0 0 0 0 0 0 0 0 0 0 0 0 0 0 0 0 0 0 0 0 0 0 0 0 0 0
0 0 0 0 0 0 0 0 0 0 0 0 0 0 0 0 0 0 0 0 0 0 0 0 0 0 0 0 0 0 0 0 0 0 0 0 0 0 0 0 0 0 0
Height
5689 5693 5696 5700 5703 5706 5710 5713 5717 5721 5724 5726 5729 5732 5734 5736 5738 5739 5741 5742 5742 5743 5744 5744 5744 5744 5743 5742 5741 5740 5738 5736 5735 5733 5730 5727 5724 5721 5718 5714 5711 5708 5705
5680 5684 5687 5690 5693 5696 5699 5703 5707 5710 5713 5716 5719 5721 5724 5726 5727 5729 5730 5731 5732 5732 5733 5733 5733 5733 5733 5732 5730 5729 5727 5725 5724 5722 5719 5716 5713 5710 5707 5704 5701 5698 5695
5670 5674 5678 5681 5684 5686 5690 5693 5696 5700 5703 5705 5708 5710 5712 5715 5716 5718 5719 5720 5721 5722 5722 5723 5722 5722 5721 5720 5719 5718 5716 5714 5712 5711 5708 5705 5702 5699 5696 5693 5690 5687 5685
5661 5664 5668 5671 5674 5677 5679 5682 5685 5688 5691 5694 5697 5699 5701 5704 5706 5707 5708 5709 5710 5711 5711 5711 5711 5711 5710 5709 5708 5706 5705 5703 5701 5699 5697 5694 5691 5688 5685 5682 5680 5677 5675
5651 5654 5657 5660 5663 5666 5669 5671 5674 5677 5680 5682 5685 5687 5690 5692 5694 5696 5697 5698 5699 5699 5700 5700 5700 5699 5698 5698 5697 5695 5694 5692 5690 5687 5685 5682 5680 5677 5674 5672 5669 5667 5665
5641 5644 5647 5649 5652 5655 5657 5660 5662 5665 5668 5671 5673 5676 5678 5681 5683 5684 5686 5686 5687 5688 5688 5688 5688 5687 5687 5686 5685 5684 5682 5680 5678 5676 5673 5671 5669 5666 5664 5662 5659 5657 5655
5631 5633 5636 5638 5640 5643 5645 5648 5651 5654 5656 5659 5661 5664 5667 5669 5671 5672 5674 5675 5676 5676 5677 5677 5676 5676 5675 5674 5673 5672 5670 5668 5667 5665 5663 5661 5658 5656 5654 5651 5649 5647 5645
5620 5622 5624 5626 5629 5631 5633 5636 5638 5641 5644 5647 5649 5652 5655 5657 5659 5660 5661 5662 5663 5664 5665 5665 5665 5664 5664 5663 5662 5660 5659 5657 5656 5654 5653 5650 5648 5646 5643 5641 5639 5637 5635
5610 5611 5613 5615 5617 5619 5621 5624 5627 5630 5632 5635 5638 5640 5642 5645 5646 5648 5649 5650 5651 5652 5653 5653 5653 5653 5652 5651 5650 5649 5648 5646 5645 5643 5642 5639 5637 5635 5633 5631 5629 5627 5626
5599 5600 5602 5604 5606 5608 5610 5612 5615 5618 5621 5623 5625 5628 5631 5633 5635 5636 5637 5639 5640 5641 5641 5641 5641 5641 5641 5640 5639 5638 5637 5635 5634 5632 5631 5629 5627 5625 5623 5621 5619 5618 5616
5588 5590 5591 5593 5595 5597 5599 5601 5604 5607 5609 5612 5614 5617 5619 5621 5622 5624 5625 5627 5628 5629 5630 5630 5630 5630 5629 5628 5627 5627 5626 5625 5623 5621 5620 5618 5617 5615 5613 5611 5609 5608 5607
5578 5579 5580 5582 5584 5586 5588 5590 5593 5595 5598 5600 5602 5605 5607 5609 5611 5612 5614 5615 5616 5617 5618 5618 5618 5618 5617 5617 5616 5615 5614 5613 5612 5611 5609 5608 5606 5605 5603 5601 5600 5598 5597
5567 5568 5570 5571 5573 5575 5577 5579 5582 5584 5586 5588 5591 5593 5595 5597 5599 5601 5602 5603 5604 5605 5606 5606 5606 5606 5606 5606 5605 5604 5603 5602 5601 5600 5599 5597 5596 5594 5593 5592 5590 5589 5588
5557 5559 5560 5561 5563 5565 5566 5568 5571 5573 5575 5577 5579 5581 5584 5586 5587 5589 5590 5591 5593 5593 5594 5595 5595 5595 5595 5595 5594 5593 5592 5591 5590 5589 5588 5587 5585 5584 5583 5582 5581 5580 5579
5547 5548 5550 5551 5553 5554 5556 5558 5560 5562 5564 5566 5568 5570 5572 5574 5576 5577 5578 5580 5581 5582 5583 5583 5584 5584 5584 5583 5583 5582 5581 5581 5580 5578 5577 5576 5575 5574 5573 5572 5571 5570 5570
5537 5538 5539 5541 5542 5544 5546 5547 5549 5551 5552 5554 5557 5559 5560 5562 5564 5566 5567 5568 5569 5570 5571 5572 5572 5573 5572 5572 5572 5571 5570 5570 5569 5568 5567 5566 5565 5564 5563 5562 5562 5561 5560
5527 5528 5529 5530 5532 5533 5534 5536 5538 5540 5541 5543 5545 5547 5549 5551 5552 5554 5555 5556 5558 5559 5560 5560 5561 5561 5561 5561 5560 5560 5559 5559 5558 5557 5557 5556 5555 5554 5553 5552 5552 5551 5550
5516 5517 5518 5519 5520 5522 5523 5525 5526 5528 5530 5531 5533 5535 5537 5539 5540 5542 5543 5545 5546 5547 5548 5548 5549 5549 5549 5549 5549 5549 5548 5548 5547 5547 5546 5545 5545 5544 5543 5542 5542 5541 5540
5505 5506 5506 5507 5508 5510 5512 5513 5515 5516 5518 5520 5521 5523 5525 5527 5528 5530 5531 5533 5534 5535 5536 5536 5537 5537 5538 5538 5538 5537 5537 5537 5536 5536 5535 5535 5534 5533 5533 5532 5531 5531 5530
5493 5494 5494 5495 5496 5497 5499 5501 5502 5504 5506 5508 5509 5511 5513 5514 5516 5517 5519 5520 5521 5523 5524 5524 5525 5525 5526 5526 5526 5526 5526 5526 5525 5525 5524 5524 5523 5523 5522 5522 5521 5520 5519
5482 5482 5483 5483 5484 5485 5487 5488 5490 5492 5494 5496 5497 5499 5500 5502 5503 5505 5507 5508 5509 5511 5512 5512 5513 5514 5514 5514 5515 5515 5515 5514 5514 5514 5513 5513 5512 5512 5511 5511 5510 5509 5508
5471 5471 5472 5472 5473 5474 5475 5477 5478 5480 5482 5484 5485 5487 5488 5489 5491 5492 5494 5496 5497 5498 5499 5500 5501 5502 5502 5503 5503 5503 5503 5503 5503 5502 5502 5501 5501 5500 5500 5499 5498 5497 5496
5460 5460 5461 5461 5462 5462 5463 5465 5467 5468 5470 5472 5473 5475 5476 5477 5479 5480 5482 5483 5485 5486 5487 5488 5489 5490 5491 5491 5491 5491 5491 5491 5491 5491 5490 5490 5489 5488 5488 5487 5486 5485 5484
5450 5450 5450 5450 5451 5452 5453 5454 5455 5457 5459 5460 5462 5463 5464 5466 5467 5469 5470 5471 5473 5474 5475 5476 5477 5478 5479 5479 5479 5479 5479 5479 5479 5478 5478 5477 5477 5476 5475 5474 5473 5472 5472
5439 5439 5440 5440 5441 5441 5442 5443 5444 5446 5447 5449 5450 5452 5453 5454 5456 5457 5458 5459 5460 5462 5463 5464 5465 5466 5466 5467 5467 5467 5467 5467 5466 5466 5465 5465 5464 5463 5462 5462 5461 5460 5459
5429 5429 5429 5430 5430 5431 5431 5432 5433 5435 5436 5438 5439 5440 5442 5442 5444 5445 5446 5447 5448 5449 5450 5451 5452 5453 5454 5454 5454 5454 5454 5454 5454 5453 5453 5452 5451 5450 5450 5449 5448 5447 5446
Wind_Speed
45 45 44 45 46 46 48 48 48 49 49 49 47 46 45 45 45 45 45 44 43 40 40 41 41 41 40 40 41 41 41 41 41 41 42 43 44 44 44 44 45 45 44
44 43 42 42 43 44 45 46 45 46 45 46 46 46 45 45 44 44 44 43 43 41 41 42 42 42 41 41 41 41 41 40 41 42 43 43 44 44 44 44 44 44 43
42 42 41 41 42 42 43 43 43 42 42 43 44 45 45 44 43 42 41 41 41 41 41 42 42 41 41 42 41 41 41 41 41 42 43 44 44 45 45 44 44 43 41
42 42 42 43 43 43 43 44 44 43 42 42 43 44 45 44 42 41 41 41 41 41 42 42 42 42 42 41 41 41 41 42 43 43 43 43 44 44 43 43 42 40 39
41 42 42 43 44 45 45 44 44 43 42 42 42 42 42 42 42 42 42 42 42 42 42 42 42 42 41 41 42 42 42 42 43 43 42 42 42 41 41 40 39 38 37
42 43 44 43 44 44 44 44 44 43 42 41 42 42 42 42 42 43 42 42 42 42 42 42 42 42 42 42 42 42 42 42 42 41 41 41 40 40 39 38 38 37 36
41 42 43 43 43 43 43 43 43 43 43 42 43 43 42 42 42 42 42 42 43 43 43 43 42 42 42 41 41 41 41 41 40 40 39 39 38 38 37 36 36 35 35
39 40 40 41 42 42 42 43 43 44 43 43 42 43 43 42 41 41 40 41 42 42 41 41 41 41 40 40 39 40 39 39 39 39 38 38 37 37 36 36 36 35 35
37 38 39 40 40 41 41 41 42 43 43 42 41 41 41 41 41 41 41 40 40 40 40 40 40 40 39 39 39 39 39 39 38 38 37 37 37 37 36 36 35 35 35
37 37 38 39 39 39 40 40 41 42 43 42 42 42 42 42 41 40 40 39 39 40 40 40 40 39 39 39 38 38 38 37 37 37 37 37 37 36 36 35 35 34 33
36 37 38 38 38 38 39 40 40 41 41 41 42 42 41 41 41 41 40 39 39 39 39 39 39 39 39 38 37 37 37 37 36 36 37 37 36 36 36 35 34 33 33
34 35 36 36 37 37 37 38 39 40 40 40 40 40 40 40 40 39 39 39 39 39 39 39 38 38 38 37 37 37 37 36 36 36 37 36 36 35 34 34 33 32 32
33 34 34 35 36 37 37 38 38 39 39 40 40 39 40 39 39 39 39 39 39 39 39 38 38 37 37 37 37 37 37 37 37 36 36 36 35 35 34 33 32 32 31
33 33 33 34 35 35 36 37 38 39 39 40 40 40 40 40 39 39 39 38 38 39 38 38 37 37 37 37 37 37 37 37 36 36 35 35 34 33 33 33 32 32 31
33 34 34 34 34 34 35 35 36 37 38 38 38 38 38 38 38 38 38 38 38 38 38 37 37 37 37 37 37 37 36 36 35 35 34 34 33 33 33 33 32 32 31
33 33 34 34 34 35 35 35 36 37 38 39 38 38 38 39 39 39 38 38 38 38 38 37 37 37 37 37 37 36 36 35 35 34 34 34 33 33 33 33 32 32 31
33 34 34 35 35 35 35 36 37 38 39 39 39 39 39 39 39 39 39 39 39 38 38 38 38 38 37 37 37 36 36 35 35 35 34 34 33 33 33 32 32 32 31
33 34 35 35 36 36 36 37 37 38 38 39 39 39 39 39 39 39 39 40 40 39 39 38 38 37 37 37 36 36 36 35 35 35 34 34 34 33 32 32 32 32 32
33 34 35 36 37 37 37 38 38 38 38 38 39 39 39 39 40 40 40 39 39 39 39 38 38 38 37 37 36 36 35 35 35 34 34 34 33 33 33 33 33 33 33
33 34 34 35 36 37 37 37 37 38 38 38 38 39 39 40 40 39 39 39 38 38 38 38 37 37 37 36 35 35 35 35 35 34 34 34 34 34 34 34 34 34 34
31 33 34 34 35 35 36 36 36 37 37 37 38 38 39 39 39 39 39 38 38 38 38 37 37 37 36 36 36 36 36 35 35 35 35 35 35 35 35 35 35 36 36
31 31 32 32 33 34 35 35 36 37 37 37 37 36 37 37 38 38 38 38 38 37 37 37 36 36 36 36 36 36 36 35 35 35 35 35 36 36 36 37 37 37 37
31 31 31 31 32 32 33 34 34 35 35 35 35 35 35 36 36 36 37 37 37 37 37 37 37 36 36 36 36 36 36 36 36 36 36 36 37 37 37 37 37 37 38
31 30 30 30 30 31 32 33 33 33 34 34 34 34 34 35 36 36 36 36 37 37 37 37 37 37 37 36 36 36 36 36 37 37 37 37 37 38 38 38 38 38 38
30 30 31 30 30 30 30 31 32 32 33 33 34 34 34 35 35 36 36 36 37 37 38 37 37 37 37 37 37 37 37 37 37 37 38 38 38 38 38 38 38 37 38
28 29 29 30 30 30 30 30 30 31 32 32 33 33 34 34 35 36 36 37 37 38 38 38 38 38 38 38 38 38 38 38 38 38 39 39 38 38 38 38 38 38 39
Wind_Direction
244 245 247 248 248 248 247 247 249 249 249 252 253 254 256 258 260 261 261 263 264 268 271 273 276 280 281 281 282 284 285 286 287 288 288 288 289 290 290 291 291 291 290
244 246 248 249 248 249 249 249 251 251 250 251 254 255 257 259 260 260 262 264 265 268 272 274 277 278 279 281 282 283 284 285 286 287 288 288 289 289 290 290 290 290 290
243 246 247 248 249 250 249 250 252 252 253 254 255 256 256 257 259 260 262 265 267 270 273 274 275 276 278 280 281 282 283 285 286 288 288 289 288 289 289 289 288 288 288
245 247 247 249 250 250 251 253 254 254 254 256 256 256 256 257 258 260 263 265 268 271 273 274 275 276 277 278 280 281 282 285 286 288 288 289 288 288 288 288 287 287 287
248 248 248 250 251 251 252 254 254 253 255 256 256 256 257 258 259 261 265 266 267 270 272 272 274 275 277 278 280 281 283 285 286 287 288 288 287 287 287 287 287 286 285
250 249 250 251 252 252 253 254 254 254 254 255 256 257 258 258 260 261 263 265 268 269 271 272 274 274 277 278 280 282 284 285 286 287 287 287 287 287 287 287 286 286 285
251 251 252 252 253 253 253 254 254 253 253 255 255 256 258 258 260 261 263 266 267 268 270 272 274 275 276 278 281 282 284 285 286 286 286 286 287 287 287 286 286 285 285
252 253 253 253 254 254 254 253 253 253 254 255 256 256 257 259 260 261 263 266 266 268 270 271 273 275 277 280 281 282 284 285 285 285 286 286 287 287 286 286 285 285 284
253 253 253 253 253 253 252 252 252 252 253 254 255 256 257 259 261 262 265 265 266 267 269 271 273 275 277 279 280 282 283 284 284 284 285 286 286 286 285 285 285 284 283
254 254 253 253 252 252 251 252 251 252 253 254 255 257 258 259 260 263 264 265 266 268 270 272 274 275 277 279 280 281 282 283 282 282 283 284 285 285 285 284 284 283 282
256 255 255 253 253 253 252 252 251 252 252 253 255 256 257 257 259 261 261 263 265 267 269 271 273 275 276 278 279 279 280 281 281 281 282 283 284 284 283 282 282 281 281
256 255 255 253 252 252 251 251 252 252 252 253 254 255 256 257 259 259 260 262 264 266 268 270 272 274 275 276 277 278 278 280 281 281 282 282 282 282 282 281 280 280 279
255 254 254 253 252 252 251 251 251 252 252 253 254 255 255 256 257 258 260 261 263 265 267 269 271 273 274 274 275 277 278 279 280 281 281 280 280 280 281 281 280 279 278
257 254 253 253 253 252 251 251 251 250 252 253 254 254 254 255 257 259 259 261 263 265 266 268 269 271 272 274 275 276 278 279 279 280 279 279 279 279 279 279 279 278 277
257 256 255 254 253 252 252 251 251 250 250 252 253 253 254 255 256 258 259 260 262 264 265 267 268 270 272 273 274 275 276 277 278 278 278 278 278 277 278 277 277 276 275
256 256 255 254 253 252 252 252 252 251 251 253 254 254 255 255 256 257 259 260 262 264 265 266 268 270 272 273 273 274 275 275 276 276 277 278 278 277 276 276 275 275 275
257 256 255 255 254 254 254 253 252 252 251 251 252 254 255 255 256 257 259 260 262 264 265 267 268 270 271 272 272 273 273 273 274 275 276 277 277 277 276 275 274 275 275
259 258 256 255 255 254 253 252 252 252 252 252 252 253 254 256 257 258 259 260 262 263 265 267 267 269 270 271 271 272 272 273 274 274 275 275 275 275 275 274 274 274 275
260 260 258 256 255 254 253 253 252 252 253 254 254 254 255 257 259 259 259 260 261 263 264 265 266 267 269 270 270 270 271 272 272 273 274 274 274 274 274 273 274 274 274
262 261 259 258 256 254 253 253 253 253 254 254 254 255 256 257 258 259 259 259 260 261 262 263 265 266 267 268 269 270 270 271 271 272 273 273 273 273 273 273 274 274 274
263 261 260 259 257 255 254 254 253 254 254 255 255 256 256 257 257 258 259 259 260 261 261 262 264 265 266 267 268 269 269 270 271 272 272 272 272 273 273 274 274 274 274
265 263 261 259 258 256 256 255 254 254 254 254 256 256 257 257 256 257 257 258 260 260 261 262 263 264 265 266 267 268 269 270 271 271 272 272 273 273 274 274 275 274 274
267 265 263 261 259 258 256 255 255 254 254 254 255 256 257 257 256 256 257 258 259 260 261 261 262 263 265 266 267 268 269 270 271 272 272 273 273 274 274 274 274 274 274
267 266 264 263 261 259 258 257 256 255 255 255 256 256 257 257 257 257 257 258 259 260 261 261 262 264 265 265 266 267 268 270 270 271 272 273 274 274 274 274 274 274 274
268 266 265 263 262 262 260 258 256 255 255 256 256 257 258 258 258 258 258 259 259 260 261 262 262 263 265 265 266 267 268 269 270 271 272 274 274 274 274 274 274 275 275
268 266 264 263 262 262 261 259 256 256 256 256 257 258 259 259 259 260 260 260 261 261 262 262 262 263 264 265 266 267 268 270 271 272 273 273 273 273 273 273 274 274 276